TimeEDT,TemperatureF,Dew PointF,Humidity,Sea Level PressureIn,VisibilityMPH,Wind Direction,Wind SpeedMPH,Gust SpeedMPH,PrecipitationIn,Events,Conditions,WindDirDegrees,DateUTC
12:15 AM,53.6,53.6,100,30.03,10.0,Calm,Calm,-,N/A,,Clear,0,2013-04-14 04:15:00
12:35 AM,53.6,53.6,100,30.04,10.0,Calm,Calm,-,N/A,,Clear,0,2013-04-14 04:35:00
12:55 AM,53.6,53.6,100,30.05,10.0,Calm,Calm,-,N/A,,Clear,0,2013-04-14 04:55:00
1:15 AM,51.8,51.8,100,30.04,10.0,Calm,Calm,-,N/A,,Clear,0,2013-04-14 05:15:00
1:35 AM,51.8,51.8,100,30.04,10.0,Calm,Calm,-,N/A,,Clear,0,2013-04-14 05:35:00
1:55 AM,51.8,51.8,100,30.04,10.0,Calm,Calm,-,N/A,,Clear,0,2013-04-14 05:55:00
2:15 AM,51.8,51.8,100,30.02,10.0,Calm,Calm,-,N/A,,Clear,0,2013-04-14 06:15:00
2:35 AM,51.8,51.8,100,30.02,10.0,Calm,Calm,-,N/A,,Clear,0,2013-04-14 06:35:00
2:55 AM,51.8,51.8,100,30.01,10.0,Calm,Calm,-,N/A,,Clear,0,2013-04-14 06:55:00
3:15 AM,51.8,51.8,100,30.01,10.0,Calm,Calm,-,N/A,,Clear,0,2013-04-14 07:15:00
3:35 AM,51.8,51.8,100,30.01,10.0,Calm,Calm,-,N/A,,Clear,0,2013-04-14 07:35:00
3:55 AM,51.8,51.8,100,30.01,10.0,Calm,Calm,-,N/A,,Clear,0,2013-04-14 07:55:00
4:55 AM,51.8,51.8,100,30.02,10.0,Calm,Calm,-,N/A,,Clear,0,2013-04-14 08:55:00
5:15 AM,51.8,51.8,100,30.01,10.0,Calm,Calm,-,N/A,,Clear,0,2013-04-14 09:15:00
5:35 AM,51.8,51.8,100,30.01,10.0,Calm,Calm,-,N/A,,Clear,0,2013-04-14 09:35:00
5:55 AM,51.8,51.8,100,30.01,10.0,Calm,Calm,-,N/A,,Clear,0,2013-04-14 09:55:00
6:15 AM,51.8,51.8,100,30.02,10.0,Calm,Calm,-,N/A,,Clear,0,2013-04-14 10:15:00
6:35 AM,51.8,51.8,100,30.02,10.0,Calm,Calm,-,N/A,,Clear,0,2013-04-14 10:35:00
6:55 AM,50.0,50.0,100,30.03,10.0,Calm,Calm,-,N/A,,Clear,0,2013-04-14 10:55:00
7:15 AM,51.8,51.8,100,30.03,10.0,ENE,3.5,-,N/A,,Clear,60,2013-04-14 11:15:00
7:35 AM,53.6,53.6,100,30.03,10.0,East,4.6,-,N/A,,Clear,80,2013-04-14 11:35:00
7:55 AM,53.6,53.6,100,30.04,10.0,Calm,Calm,-,N/A,,Clear,0,2013-04-14 11:55:00
8:15 AM,55.4,55.4,100,30.04,10.0,Calm,Calm,-,N/A,,Clear,0,2013-04-14 12:15:00
8:35 AM,55.4,55.4,100,30.05,10.0,East,3.5,-,N/A,,Clear,90,2013-04-14 12:35:00
8:55 AM,55.4,55.4,100,30.09,10.0,WSW,4.6,-,N/A,,Clear,250,2013-04-14 12:55:00
9:15 AM,57.2,57.2,100,30.11,10.0,West,4.6,-,N/A,,Scattered Clouds,280,2013-04-14 13:15:00
9:35 AM,57.2,57.2,100,30.10,10.0,NNW,3.5,-,N/A,,Scattered Clouds,330,2013-04-14 13:35:00
9:55 AM,59.0,59.0,100,30.08,10.0,Calm,Calm,-,N/A,,Scattered Clouds,0,2013-04-14 13:55:00
10:15 AM,59.0,59.0,100,30.07,10.0,Calm,Calm,-,N/A,,Clear,0,2013-04-14 14:15:00
10:35 AM,60.8,59.0,94,30.06,10.0,ENE,5.8,-,N/A,,Clear,70,2013-04-14 14:35:00
10:55 AM,60.8,59.0,94,30.07,10.0,Calm,Calm,-,N/A,,Scattered Clouds,0,2013-04-14 14:55:00
11:15 AM,60.8,60.8,100,30.09,10.0,Calm,Calm,-,N/A,,Mostly Cloudy,0,2013-04-14 15:15:00
11:35 AM,60.8,60.8,100,30.08,10.0,Calm,Calm,-,N/A,,Overcast,0,2013-04-14 15:35:00
11:55 AM,62.6,60.8,94,30.08,10.0,East,3.5,-,N/A,,Unknown,100,2013-04-14 15:55:00
12:15 PM,62.6,60.8,94,30.07,10.0,East,3.5,-,N/A,Rain,Light Rain,90,2013-04-14 16:15:00
12:35 PM,62.6,62.6,100,30.06,10.0,East,4.6,-,N/A,Rain,Light Rain,100,2013-04-14 16:35:00
12:55 PM,60.8,60.8,100,30.05,10.0,East,4.6,-,N/A,Rain,Light Rain,90,2013-04-14 16:55:00
1:15 PM,62.6,62.6,100,30.06,10.0,Calm,Calm,-,N/A,Rain,Light Rain,0,2013-04-14 17:15:00
1:35 PM,62.6,62.6,100,30.04,10.0,East,4.6,-,N/A,Rain,Light Rain,80,2013-04-14 17:35:00
1:55 PM,62.6,62.6,100,30.05,10.0,East,3.5,-,N/A,Rain,Light Rain,90,2013-04-14 17:55:00
2:15 PM,62.6,62.6,100,30.06,10.0,Calm,Calm,-,N/A,Rain,Light Rain,0,2013-04-14 18:15:00
2:35 PM,62.6,62.6,100,30.07,4.0,Calm,Calm,-,N/A,Rain,Rain,0,2013-04-14 18:35:00
2:55 PM,62.6,62.6,100,30.05,7.0,ESE,5.8,-,N/A,Rain,Rain,120,2013-04-14 18:55:00
3:15 PM,62.6,62.6,100,30.02,10.0,ENE,8.1,-,N/A,Rain,Light Rain,70,2013-04-14 19:15:00
3:35 PM,62.6,62.6,100,30.00,10.0,ENE,6.9,-,N/A,,Overcast,70,2013-04-14 19:35:00
4:15 PM,62.6,62.6,100,29.99,10.0,East,5.8,-,N/A,,Drizzle,80,2013-04-14 20:15:00
4:35 PM,62.6,62.6,100,29.98,10.0,ENE,5.8,-,N/A,Rain,Light Rain,70,2013-04-14 20:35:00
4:55 PM,62.6,62.6,100,29.99,10.0,Calm,Calm,-,N/A,Rain,Light Rain,0,2013-04-14 20:55:00
5:15 PM,60.8,60.8,100,30.02,4.0,WNW,6.9,-,N/A,Rain,Rain,290,2013-04-14 21:15:00
5:35 PM,60.8,60.8,100,30.01,4.0,North,5.8,-,N/A,Rain,Rain,360,2013-04-14 21:35:00
5:55 PM,60.8,60.8,100,29.99,7.0,NE,8.1,-,N/A,Rain,Light Rain,40,2013-04-14 21:55:00
6:15 PM,59.0,59.0,100,30.01,7.0,North,5.8,-,N/A,Rain,Rain,350,2013-04-14 22:15:00
6:35 PM,59.0,59.0,100,30.03,3.0,NW,9.2,-,N/A,Rain,Heavy Rain,320,2013-04-14 22:35:00
6:55 PM,59.0,59.0,100,30.01,1.8,East,9.2,-,N/A,Rain,Heavy Rain,100,2013-04-14 22:55:00
7:15 PM,60.8,60.8,100,29.98,4.0,SE,15.0,20.7,N/A,Rain,Rain,140,2013-04-14 23:15:00
7:35 PM,60.8,60.8,100,29.96,5.0,SSE,12.7,20.7,N/A,Rain,Rain,150,2013-04-14 23:35:00
7:55 PM,60.8,60.8,100,29.97,10.0,SE,17.3,23.0,N/A,Rain,Light Rain,140,2013-04-14 23:55:00
8:15 PM,60.8,60.8,100,29.98,10.0,SSE,9.2,-,N/A,Rain,Light Rain,150,2013-04-15 00:15:00
8:35 PM,62.6,62.6,100,29.93,10.0,SE,12.7,19.6,N/A,Rain,Light Rain,140,2013-04-15 00:35:00
8:55 PM,62.6,62.6,100,29.85,10.0,SE,21.9,29.9,N/A,Rain,Light Rain,140,2013-04-15 00:55:00
9:15 PM,62.6,62.6,100,29.83,10.0,SSE,23.0,33.4,N/A,,Overcast,150,2013-04-15 01:15:00
9:35 PM,62.6,62.6,100,29.85,10.0,SE,17.3,27.6,N/A,,Mostly Cloudy,140,2013-04-15 01:35:00
9:55 PM,62.6,62.6,100,29.86,10.0,SSE,13.8,23.0,N/A,,Overcast,150,2013-04-15 01:55:00
10:15 PM,60.8,60.8,100,29.84,10.0,SE,19.6,24.2,N/A,,Overcast,140,2013-04-15 02:15:00
10:35 PM,60.8,60.8,100,29.92,10.0,Calm,Calm,-,N/A,,Overcast,0,2013-04-15 02:35:00
10:55 PM,60.8,60.8,100,29.97,10.0,Calm,Calm,-,N/A,,Overcast,0,2013-04-15 02:55:00
11:15 PM,60.8,60.8,100,29.99,10.0,NW,3.5,-,N/A,,Overcast,310,2013-04-15 03:15:00
11:35 PM,60.8,60.8,100,29.98,10.0,ENE,3.5,-,N/A,,Overcast,70,2013-04-15 03:35:00
11:55 PM,60.8,60.8,100,30.00,10.0,West,3.5,-,N/A,,Overcast,280,2013-04-15 03:55:00